User: anonymous   Login
Location: Krakow
(50.0212°N, 19.9423°E)
Time: 06:10:50
(UTC+02:00)
Language:

TIGRISAT - Orbit

View from above orbital plane
View from above orbital plane
View from above satellite
View from above satellite

Ground track
Ground track

The orbit data is extracted from the following two-line orbital elements,

1 40043U 14033AK  24106.41112919  .00005229  00000-0  70582-3 0  9996
2 40043  97.6898 271.8971 0056743 147.1398 213.3362 14.78375069528187
Epoch (UTC): 15 April 2024 09:52:01
Eccentricity: 0.0056743
inclination: 97.6898°
perigee height: 594 km
apogee height: 674 km
right ascension of ascending node: 271.8971°
argument of perigee: 147.1398°
revolutions per day: 14.78375069
mean anomaly at epoch: 213.3362°
orbit number at epoch: 52818

The dashed part of the orbit path shows where the satellite is in the earth's shadow,  

DLR